St. Petersburg Airport, FL

10:47 PM EDT on June 24, 2017 (GMT -0400)
Saint Petersburg-Clearwater International

Weather History for KPIE - February, 2014

Change the Weather History Date:

Sunday, February 16, 2014

  Actual Average Record
Temperature  
Mean Temperature 56 °F -  
Max Temperature 68 °F 72 °F 82 °F (1949)
Min Temperature 44 °F 57 °F 37 °F (1991)
Degree Days  
Heating Degree Days 9    
Growing Degree Days 6 (Base 50)    
Moisture  
Dew Point 44 °F    
Average Humidity 71    
Maximum Humidity 96    
Minimum Humidity 30    
Precipitation  
Precipitation 0.00 in - - ()
Sea Level Pressure  
Sea Level Pressure 30.18 in    
Wind  
Wind Speed 4 mph (NNW)    
Max Wind Speed 12 mph    
Max Gust Speed -    
Visibility 10 miles    
Events      
Averages and records for this station are not official NWS values.
T = Trace of Precipitation, MM = Missing Value Source: NWS Daily Summary

Daily Weather History Graph

Daily Weather History Graph

Search for Another Location

Airport or City:

Trip Planner

Search our weather history database for the weather conditions in past years. The results will help you decide how hot, cold, wet, or windy it might be!

Date:

Astronomy

Feb. 16, 2014 Rise Set
Actual Time 7:07 AM EST 6:22 PM EST
Civil Twilight 6:43 AM EST 6:46 PM EST
Nautical Twilight 6:15 AM EST 7:14 PM EST
Astronomical Twilight 5:48 AM EST 7:41 PM EST
Moon 8:04 PM EST (2/16) 7:48 AM EST (2/16)
Length of Visible Light 12h 03m
Length of Day
11h 15m
Full, 97% of the Moon is Illuminated
Feb 16
Full
Feb 22
Last Quarter
Mar 1
New
Mar 8
First Quarter
Mar 16
Full

Hourly Weather History & Observations

Time (EST) Temp. Dew Point Humidity Pressure Visibility Wind Dir Wind Speed Gust Speed Precip Events Conditions
12:53 AM 52.0 °F 46.0 °F 80% 30.14 in 10.0 mi North 4.6 mph - N/A   Clear
1:53 AM 52.0 °F 46.0 °F 80% 30.15 in 10.0 mi North 6.9 mph - N/A   Clear
2:53 AM 46.0 °F 43.0 °F 89% 30.14 in 10.0 mi Calm Calm - N/A   Clear
3:53 AM 44.1 °F 42.1 °F 93% 30.13 in 6.0 mi Calm Calm - N/A   Clear
4:53 AM 45.0 °F 43.0 °F 93% 30.14 in 10.0 mi Calm Calm - N/A   Clear
5:53 AM 45.0 °F 43.0 °F 93% 30.17 in 9.0 mi Calm Calm - N/A   Clear
6:53 AM 44.1 °F 43.0 °F 96% 30.17 in 10.0 mi Calm Calm - N/A   Clear
7:53 AM 46.9 °F 44.1 °F 90% 30.19 in 10.0 mi Calm Calm - N/A   Clear
8:53 AM 55.9 °F 46.9 °F 72% 30.21 in 10.0 mi NE 3.5 mph - N/A   Clear
9:53 AM 57.9 °F 46.9 °F 67% 30.22 in 10.0 mi Variable 4.6 mph - N/A   Clear
10:53 AM 61.0 °F 45.0 °F 56% 30.22 in 10.0 mi NE 5.8 mph - N/A   Clear
11:53 AM 63.0 °F 46.0 °F 54% 30.22 in 10.0 mi NNE 5.8 mph - N/A   Clear
12:53 PM 66.0 °F 45.0 °F 47% 30.20 in 10.0 mi Variable 4.6 mph - N/A   Clear
1:53 PM 66.9 °F 37.9 °F 34% 30.18 in 10.0 mi WNW 9.2 mph - N/A   Clear
2:53 PM 68.0 °F 36.0 °F 31% 30.16 in 10.0 mi NNW 8.1 mph - N/A   Clear
3:53 PM 66.9 °F 34.0 °F 30% 30.16 in 10.0 mi NW 10.4 mph - N/A   Clear
4:53 PM 64.0 °F 39.9 °F 41% 30.17 in 10.0 mi NW 11.5 mph - N/A   Clear
5:53 PM 61.0 °F 44.1 °F 54% 30.19 in 10.0 mi NNW 9.2 mph - N/A   Clear
6:53 PM 57.0 °F 48.9 °F 74% 30.19 in 10.0 mi NW 9.2 mph - N/A   Clear
7:53 PM 54.0 °F 50.0 °F 86% 30.20 in 10.0 mi WNW 4.6 mph - N/A   Clear
8:53 PM 55.0 °F 50.0 °F 83% 30.21 in 10.0 mi NNW 3.5 mph - N/A   Clear
9:53 PM 52.0 °F 48.9 °F 89% 30.22 in 10.0 mi Calm Calm - N/A   Clear
10:53 PM 54.0 °F 50.0 °F 86% 30.22 in 10.0 mi Calm Calm - N/A   Clear
11:53 PM 50.0 °F 48.0 °F 93% 30.20 in 8.0 mi Calm Calm - N/A   Clear